Regional Weather Roundup
Issued by NWS

Home | Current Version | Previous Version | Text Only | Print | Product List | Glossary On
Versions: 1 2 3 4 5 6 7 8 9 10 11 12 13 14 15 16 17 18 19 20 21 22 23 24 25 26 27 28 29 30 31 32 33 34 35 36 37 38 39 40 41 42 43 44 45 46 47 48 49 50
000
ASUS43 KLMK 240102
RWRKY
KENTUCKY REGIONAL WEATHER ROUNDUP
NATIONAL WEATHER SERVICE LOUISVILLE KY
900 PM EDT MON OCT 23 2017

NOTE "FAIR" INDICATES FEW OR NO CLOUDS BELOW 12,000 FEET
WITH NO SIGNIFICANT WEATHER AND/OR OBSTRUCTIONS TO VISIBILITY.

KYZ001>023-026-027-061>063-070>075-240200-
WESTERN AND SOUTH CENTRAL KENTUCKY

CITY           SKY/WX    TMP DP  RH WIND       PRES   REMARKS
PADUCAH        PTCLDY    58  44  60 S9        29.81F
HENDERSON      CLOUDY    50  46  86 S3        29.84S
OWENSBORO      PTCLDY    51  47  86 SW3       29.85R
HOPKINSVILLE   CLEAR     52  46  79 S5        29.88R
BOWLING GREEN  CLOUDY    53  44  71 SW9       29.88R
GLASGOW        NOT AVBL
$$

KYZ024-025-028>034-038-045-046-053-240200-
NORTH CENTRAL KENTUCKY

CITY           SKY/WX    TMP DP  RH WIND       PRES   REMARKS
LOUISVILLE/SDF CLOUDY    52  47  83 W9        29.80R
LOUISVILLE/LOU LGT RAIN  51  50  96 W9        29.80R
FORT KNOX      CLOUDY    50  48  92 W6        29.80S
$$

KYZ035>037-039>044-047>052-055>060-089>105-240200-
NORTHEAST KENTUCKY

CITY           SKY/WX    TMP DP  RH WIND       PRES   REMARKS
LEXINGTON      CLOUDY    54  50  86 SW14G25   29.77R
COVINGTON      LGT RAIN  54  54 100 SW12      29.68R FOG
FRANKFORT      LGT RAIN  53  50  89 W8        29.76R FOG
$$

KYZ054-064>069-076>088-106>120-240200-
SOUTHEAST KENTUCKY

CITY           SKY/WX    TMP DP  RH WIND       PRES   REMARKS
JACKSON        CLOUDY    55  52  89 MISG      29.79R
LONDON         LGT RAIN  54  52  93 W17       29.83R
SOMERSET       NOT AVBL
MIDDLESBORO    CLOUDY    57  52  84 CALM      29.86R
MONTICELLO     CLOUDY    52  50  93 W14G21    29.90R
$$




USA.gov is the U.S. government's official web portal to all federal, state and local government web resources and services.